Date String (YYYY-MM-DD hh:mm:ss) UTC,Instrument flags,Ambient pressure (hPa),Sample flow (lpm),Bypass flow (lpm),Sample temperature (°C),Ambient temperature (°C),ASC tube jacket temperature (°C),LED temperature (°C),Box temperature (°C),Sample RH (%),Span deviation,Mass concentration (μg/m³),Mass concentration (μg/m³),Mass concentration (μg/m³)
DateTimeUTC,F1_M11,P_M11,Q1_M11,Q2_M11,T1_M11,T2_M11,T3_M11,T4_M11,T5_M11,U1_M11,ZSPAN_M11,X0_M11,X2_M11,X1_M11
2022-12-26 07:00:00,,0829.2,5.03,0.00,21.9,20.6,00.0,30.8,23.7,19.4,0000.0,0002.59,0001.46,0001.26
2022-12-26 07:01:00,,0829.2,5.02,0.00,21.9,20.6,00.0,30.8,23.6,19.4,0000.0,0002.70,0001.48,0001.28
2022-12-26 07:02:00,,0829.2,4.99,0.00,21.9,20.6,00.0,30.7,23.6,19.4,0000.0,0002.74,0001.47,0001.26
2022-12-26 07:03:00,,0829.2,4.97,0.00,21.9,20.6,00.0,30.7,23.7,19.4,0000.0,0002.68,0001.44,0001.25
2022-12-26 07:04:00,,0829.1,5.01,0.00,21.8,20.6,00.0,30.7,23.7,19.4,0000.0,0002.59,0001.44,0001.24
2022-12-26 07:05:00,,0829.1,5.02,0.00,21.8,20.6,00.0,30.7,23.6,19.4,0000.0,0002.54,0001.41,0001.21
2022-12-26 07:06:00,,0829.1,4.99,0.00,21.8,20.4,00.0,30.7,23.5,19.4,0000.0,0002.54,0001.40,0001.18
2022-12-26 07:07:00,,0829.1,4.96,0.00,21.8,20.1,00.0,30.7,23.4,19.5,0000.0,0002.27,0001.38,0001.15
2022-12-26 07:08:00,,0829.1,4.99,0.00,21.7,19.9,00.0,30.7,23.3,19.6,0000.0,0002.03,0001.32,0001.12
2022-12-26 07:09:00,,0829.1,5.02,0.00,21.6,19.8,00.0,30.7,23.2,19.6,0000.0,0001.94,0001.29,0001.10
2022-12-26 07:10:00,,0829.1,4.99,0.00,21.6,19.7,00.0,30.7,23.2,19.6,0000.0,0001.91,0001.28,0001.09
2022-12-26 07:11:00,,0829.0,5.01,0.00,21.6,19.6,00.0,30.6,23.1,19.7,0000.0,0001.86,0001.25,0001.07
2022-12-26 07:12:00,,0829.1,4.98,0.00,21.5,19.7,00.0,30.6,23.1,19.7,0000.0,0001.73,0001.21,0001.05
2022-12-26 07:13:00,,0829.1,4.97,0.00,21.5,19.6,00.0,30.6,23.1,19.8,0000.0,0001.71,0001.21,0001.04
2022-12-26 07:14:00,,0829.0,5.06,0.00,21.4,19.5,00.0,30.6,23.0,19.9,0000.0,0001.85,0001.20,0001.04
2022-12-26 07:15:00,,0829.0,5.02,0.00,21.4,19.8,00.0,30.5,23.1,19.9,0000.0,0001.84,0001.20,0001.05
2022-12-26 07:16:00,,0829.0,4.99,0.00,21.5,20.8,00.0,30.4,23.3,19.8,0000.0,0001.95,0001.25,0001.07
2022-12-26 07:17:00,,0828.9,4.97,0.00,21.6,21.7,00.0,30.4,23.6,19.7,0000.0,0001.93,0001.24,0001.08
2022-12-26 07:18:00,,0829.0,5.04,0.00,21.7,21.7,00.0,30.5,23.7,19.6,0000.0,0001.97,0001.26,0001.10
2022-12-26 07:19:00,,0828.9,5.03,0.00,21.7,21.4,00.0,30.5,23.6,19.5,0000.0,0002.38,0001.32,0001.13
2022-12-26 07:20:00,,0828.9,4.97,0.00,21.7,21.2,00.0,30.5,23.6,19.5,0000.0,0002.57,0001.39,0001.17
2022-12-26 07:21:00,,0828.9,4.98,0.00,21.7,20.9,00.0,30.6,23.6,19.4,0000.0,0002.65,0001.43,0001.20
2022-12-26 07:22:00,,0828.9,5.03,0.00,21.7,20.9,00.0,30.6,23.6,19.4,0000.0,0002.68,0001.47,0001.24
2022-12-26 07:23:00,,0828.9,5.04,0.00,21.7,20.8,00.0,30.6,23.5,19.4,0000.0,0002.72,0001.51,0001.28
2022-12-26 07:24:00,,0828.8,4.98,0.00,21.7,20.6,00.0,30.6,23.5,19.4,0000.0,0002.73,0001.56,0001.34
2022-12-26 07:25:00,,0828.8,4.97,0.00,21.7,20.6,00.0,30.6,23.5,19.4,0000.0,0002.67,0001.62,0001.38
2022-12-26 07:26:00,,0828.9,5.00,0.00,21.7,20.5,00.0,30.6,23.5,19.4,0000.0,0002.70,0001.66,0001.43
2022-12-26 07:27:00,,0828.8,5.00,0.00,21.7,20.4,00.0,30.6,23.4,19.4,0000.0,0003.12,0001.71,0001.49
2022-12-26 07:28:00,,0828.8,5.03,0.00,21.7,20.4,00.0,30.6,23.4,19.4,0000.0,0003.43,0001.75,0001.53
2022-12-26 07:29:00,,0828.8,5.00,0.00,21.6,20.3,00.0,30.6,23.3,19.5,0000.0,0003.43,0001.79,0001.58
2022-12-26 07:30:00,,0829.3,4.97,0.00,21.6,20.2,00.0,30.6,23.2,19.5,0000.0,0003.20,0001.84,0001.64
2022-12-26 07:31:00,,0829.2,4.98,0.00,21.6,20.0,00.0,30.6,23.2,19.5,0000.0,0003.17,0001.90,0001.69
2022-12-26 07:32:00,,0828.8,5.02,0.00,21.5,20.0,00.0,30.6,23.1,19.5,0000.0,0003.41,0001.96,0001.75
2022-12-26 07:33:00,,0828.7,5.02,0.00,21.5,19.9,00.0,30.5,23.1,19.5,0000.0,0003.57,0002.06,0001.82
2022-12-26 07:34:00,,0829.0,5.00,0.00,21.4,19.7,00.0,30.5,23.0,19.5,0000.0,0003.68,0002.14,0001.89
2022-12-26 07:35:00,,0829.3,4.98,0.00,21.4,19.6,00.0,30.5,22.9,19.5,0000.0,0003.78,0002.22,0001.95
2022-12-26 07:36:00,,0828.7,5.02,0.00,21.3,19.4,00.0,30.5,22.8,19.6,0000.0,0003.81,0002.26,0002.01
2022-12-26 07:37:00,,0828.7,5.02,0.00,21.3,19.3,00.0,30.4,22.7,19.7,0000.0,0003.86,0002.31,0002.06
2022-12-26 07:38:00,,0829.1,5.00,0.00,21.2,19.2,00.0,30.4,22.7,19.7,0000.0,0003.46,0002.33,0002.11
2022-12-26 07:39:00,,0828.8,5.00,0.00,21.2,19.1,00.0,30.4,22.6,19.8,0000.0,0003.23,0002.38,0002.16
2022-12-26 07:40:00,,0829.0,4.98,0.00,21.1,19.1,00.0,30.3,22.6,19.9,0000.0,0003.29,0002.43,0002.19
2022-12-26 07:41:00,,0828.9,4.97,0.00,21.1,19.5,00.0,30.3,22.7,19.9,0000.0,0003.32,0002.40,0002.19
2022-12-26 07:42:00,,0828.8,5.02,0.00,21.2,20.7,00.0,30.2,23.0,19.9,0000.0,0004.73,0002.35,0002.17
2022-12-26 07:43:00,,0828.8,5.03,0.00,21.3,21.5,00.0,30.2,23.3,19.8,0000.0,0004.46,0002.30,0002.13
2022-12-26 07:44:00,,0828.7,4.97,0.00,21.4,21.3,00.0,30.3,23.3,19.7,0000.0,0004.36,0002.24,0002.09
2022-12-26 07:45:00,,0828.9,5.00,0.00,21.4,21.1,00.0,30.3,23.3,19.7,0000.0,0004.27,0002.15,0002.02
2022-12-26 07:46:00,,0829.0,5.02,0.00,21.5,20.9,00.0,30.3,23.3,19.7,0000.0,0004.15,0002.06,0001.95
2022-12-26 07:47:00,,0829.2,5.02,0.00,21.5,20.8,00.0,30.3,23.4,19.6,0000.0,0004.07,0001.98,0001.88
2022-12-26 07:48:00,,0829.1,4.97,0.00,21.5,20.8,00.0,30.3,23.4,19.6,0000.0,0004.01,0001.91,0001.80
2022-12-26 07:49:00,,0828.9,4.97,0.00,21.6,20.7,00.0,30.4,23.4,19.5,0000.0,0003.92,0001.83,0001.71
2022-12-26 07:50:00,,0829.2,5.02,0.00,21.6,20.7,00.0,30.4,23.4,19.5,0000.0,0003.85,0001.76,0001.65
2022-12-26 07:51:00,,0829.2,5.03,0.00,21.6,20.7,00.0,30.4,23.4,19.5,0000.0,0003.78,0001.69,0001.58
2022-12-26 07:52:00,,0829.2,4.97,0.00,21.6,20.7,00.0,30.4,23.5,19.4,0000.0,0003.82,0001.68,0001.53
2022-12-26 07:53:00,,0828.8,4.97,0.00,21.6,20.7,00.0,30.4,23.5,19.4,0000.0,0003.06,0001.68,0001.50
2022-12-26 07:54:00,,0829.1,5.03,0.00,21.7,20.6,00.0,30.4,23.5,19.4,0000.0,0003.81,0001.72,0001.48
2022-12-26 07:55:00,,0829.1,5.03,0.00,21.7,20.6,00.0,30.5,23.5,19.4,0000.0,0003.99,0001.77,0001.46
2022-12-26 07:56:00,,0829.0,5.02,0.00,21.7,20.5,00.0,30.5,23.5,19.4,0000.0,0004.00,0001.77,0001.46
2022-12-26 07:57:00,,0829.0,4.97,0.00,21.7,20.5,00.0,30.5,23.5,19.4,0000.0,0004.01,0001.77,0001.46
2022-12-26 07:58:00,,0828.9,4.97,0.00,21.7,20.4,00.0,30.5,23.5,19.4,0000.0,0004.01,0001.78,0001.46
2022-12-26 07:59:00,,0828.8,5.01,0.00,21.7,20.4,00.0,30.5,23.5,19.4,0000.0,0004.02,0001.80,0001.48
